| time (UTC) | temp C | wind direction | speed KPH | gust KPH | rain 1hr cm | rain 24hr cm | rain mn cm | humidity % | barometer mb |
| 20260506014829 | 20 | 191 | 11.3 | 12.9 | 0.00 | 0.00 | 0.00 | 79 | 1015.4 |
| 20260506014326 | 20 | 196 | 11.3 | 11.3 | 0.00 | 0.00 | 0.00 | 77 | 1015.6 |
| 20260506013823 | 20 | 181 | 9.7 | 12.9 | 0.00 | 0.00 | 0.00 | 77 | 1015.5 |
| 20260506013320 | 20 | 197 | 11.3 | 12.9 | 0.00 | 0.00 | 0.00 | 78 | 1015.6 |
| 20260506012817 | 20 | 190 | 11.3 | 11.3 | 0.00 | 0.00 | 0.00 | 77 | 1015.6 |
| 20260506012314 | 20 | 213 | 9.7 | 11.3 | 0.00 | 0.00 | 0.00 | 77 | 1015.6 |
| 20260506011811 | 20 | 192 | 11.3 | 12.9 | 0.00 | 0.00 | 0.00 | 76 | 1015.4 |
| 20260506011307 | 20 | 193 | 11.3 | 12.9 | 0.00 | 0.00 | 0.00 | 76 | 1015.5 |
| 20260506010805 | 20 | 194 | 9.7 | 12.9 | 0.00 | 0.00 | 0.00 | 76 | 1015.4 |
| 20260506010303 | 20 | 197 | 9.7 | 11.3 | 0.00 | 0.00 | 0.00 | 76 | 1015.3 |
| 20260506005800 | 20 | 188 | 11.3 | 12.9 | 0.00 | 0.00 | 0.00 | 75 | 1015.3 |
| 20260506005256 | 21 | 192 | 11.3 | 12.9 | 0.00 | 0.00 | 0.00 | 77 | 1015.2 |
| 20260506004752 | 21 | 195 | 14.5 | 16.1 | 0.00 | 0.00 | 0.00 | 75 | 1015.0 |
| 20260506004251 | 21 | 191 | 11.3 | 12.9 | 0.00 | 0.00 | 0.00 | 77 | 1015.1 |
| 20260506003746 | 21 | 177 | 12.9 | 14.5 | 0.00 | 0.00 | 0.00 | 76 | 1015.2 |
| 20260506003243 | 21 | 192 | 9.7 | 11.3 | 0.00 | 0.00 | 0.00 | 76 | 1015.2 |
| 20260506002739 | 21 | 194 | 9.7 | 11.3 | 0.00 | 0.00 | 0.00 | 78 | 1014.9 |
| 20260506002235 | 21 | 188 | 11.3 | 12.9 | 0.00 | 0.00 | 0.00 | 77 | 1014.8 |
| 20260506001731 | 21 | 192 | 9.7 | 11.3 | 0.00 | 0.00 | 0.00 | 76 | 1014.8 |
| 20260506001229 | 21 | 192 | 12.9 | 12.9 | 0.00 | 0.00 | 0.00 | 77 | 1014.8 |
| 20260506000725 | 21 | 192 | 12.9 | 12.9 | 0.00 | 0.00 | 0.00 | 75 | 1014.8 |
| 20260506000223 | 21 | 183 | 12.9 | 14.5 | 0.00 | 0.00 | 0.00 | 76 | 1014.5 |
| 20260505235720 | 21 | 178 | 12.9 | 14.5 | 0.00 | 0.00 | 0.00 | 75 | 1014.6 |
| 20260505235218 | 21 | 184 | 12.9 | 14.5 | 0.00 | 0.00 | 0.00 | 76 | 1014.7 |
| 20260505234714 | 21 | 205 | 12.9 | 14.5 | 0.00 | 0.00 | 0.00 | 75 | 1014.5 |
| 20260505234212 | 21 | 188 | 11.3 | 12.9 | 0.00 | 0.00 | 0.00 | 76 | 1014.7 |
| 20260505233708 | 21 | 195 | 12.9 | 12.9 | 0.00 | 0.00 | 0.00 | 74 | 1014.5 |
| 20260505233206 | 21 | 197 | 12.9 | 12.9 | 0.00 | 0.00 | 0.00 | 75 | 1014.5 |
| 20260505232703 | 21 | 201 | 11.3 | 12.9 | 0.00 | 0.00 | 0.00 | 75 | 1014.7 |
| 20260505232201 | 21 | 198 | 12.9 | 14.5 | 0.00 | 0.00 | 0.00 | 72 | 1014.5 |
| 20260505231657 | 21 | 193 | 14.5 | 16.1 | 0.00 | 0.00 | 0.00 | 74 | 1014.3 |
| 20260505231156 | 21 | 191 | 12.9 | 12.9 | 0.00 | 0.00 | 0.00 | 74 | 1014.5 |
| 20260505230654 | 22 | 193 | 12.9 | 12.9 | 0.00 | 0.00 | 0.00 | 76 | 1014.2 |
| 20260505230150 | 22 | 181 | 12.9 | 12.9 | 0.00 | 0.00 | 0.00 | 74 | 1013.9 |
| 20260505225646 | 22 | 183 | 14.5 | 16.1 | 0.00 | 0.00 | 0.00 | 74 | 1014.2 |
| 20260505225143 | 22 | 192 | 14.5 | 14.5 | 0.00 | 0.00 | 0.00 | 73 | 1014.0 |
| 20260505224639 | 22 | 196 | 16.1 | 16.1 | 0.00 | 0.00 | 0.00 | 71 | 1014.4 |
| 20260505224137 | 22 | 148 | 14.5 | 14.5 | 0.00 | 0.00 | 0.00 | 74 | 1014.4 |
| 20260505223634 | 22 | 186 | 11.3 | 11.3 | 0.00 | 0.00 | 0.00 | 74 | 1014.3 |
| 20260505223130 | 22 | 194 | 12.9 | 12.9 | 0.00 | 0.00 | 0.00 | 78 | 1014.2 |
| 20260505222626 | 22 | 186 | 9.7 | 9.7 | 0.00 | 0.00 | 0.00 | 78 | 1014.3 |
| 20260505222123 | 22 | 167 | 14.5 | 14.5 | 0.00 | 0.00 | 0.00 | 77 | 1014.2 |
| 20260505221620 | 22 | 186 | 11.3 | 12.9 | 0.00 | 0.00 | 0.00 | 78 | 1014.2 |
| 20260505221116 | 22 | 192 | 12.9 | 14.5 | 0.00 | 0.00 | 0.00 | 75 | 1014.4 |
| 20260505220614 | 22 | 193 | 12.9 | 14.5 | 0.00 | 0.00 | 0.00 | 74 | 1014.4 |
| 20260505220111 | 23 | 178 | 12.9 | 12.9 | 0.00 | 0.00 | 0.00 | 76 | 1014.1 |
| 20260505215609 | 23 | 180 | 12.9 | 14.5 | 0.00 | 0.00 | 0.00 | 72 | 1014.3 |
| 20260505215107 | 23 | 193 | 14.5 | 16.1 | 0.00 | 0.00 | 0.00 | 70 | 1014.2 |
| 20260505214605 | 23 | 194 | 12.9 | 12.9 | 0.00 | 0.00 | 0.00 | 70 | 1013.9 |
| 20260505214102 | 23 | 186 | 9.7 | 11.3 | 0.00 | 0.00 | 0.00 | 72 | 1014.0 |
| 20260505213559 | 22 | 183 | 11.3 | 11.3 | 0.00 | 0.00 | 0.00 | 78 | 1014.1 |
| 20260505213055 | 22 | 165 | 12.9 | 14.5 | 0.00 | 0.00 | 0.00 | 77 | 1014.1 |
| 20260505212552 | 22 | 186 | 14.5 | 14.5 | 0.00 | 0.00 | 0.00 | 78 | 1014.0 |
| 20260505212050 | 22 | 193 | 11.3 | 12.9 | 0.00 | 0.00 | 0.00 | 76 | 1014.0 |
| 20260505211546 | 22 | 170 | 12.9 | 12.9 | 0.00 | 0.00 | 0.00 | 78 | 1013.9 |
| 20260505211043 | 22 | 189 | 11.3 | 12.9 | 0.00 | 0.00 | 0.00 | 76 | 1013.9 |
| 20260505210539 | 22 | 186 | 9.7 | 11.3 | 0.00 | 0.00 | 0.00 | 76 | 1013.8 |
| 20260505210037 | 22 | 186 | 12.9 | 14.5 | 0.00 | 0.00 | 0.00 | 74 | 1013.7 |
| 20260505205535 | 23 | 186 | 11.3 | 12.9 | 0.00 | 0.00 | 0.00 | 75 | 1014.0 |
| 20260505205032 | 23 | 188 | 14.5 | 16.1 | 0.00 | 0.00 | 0.00 | 71 | 1014.1 |
| 20260505204529 | 23 | 186 | 9.7 | 11.3 | 0.00 | 0.00 | 0.00 | 70 | 1013.9 |
| 20260505204026 | 23 | 181 | 11.3 | 12.9 | 0.00 | 0.00 | 0.00 | 72 | 1014.1 |
| 20260505203523 | 23 | 183 | 12.9 | 14.5 | 0.00 | 0.00 | 0.00 | 71 | 1014.1 |
| 20260505203020 | 24 | 190 | 14.5 | 14.5 | 0.00 | 0.00 | 0.00 | 60 | 1014.2 |
| 20260505202516 | 23 | 197 | 14.5 | 16.1 | 0.00 | 0.00 | 0.00 | 63 | 1014.3 |
| 20260505202012 | 24 | 182 | 11.3 | 12.9 | 0.00 | 0.00 | 0.00 | 59 | 1014.3 |
| 20260505201510 | 24 | 181 | 12.9 | 12.9 | 0.00 | 0.00 | 0.00 | 58 | 1014.5 |
| 20260505201007 | 24 | 192 | 9.7 | 11.3 | 0.00 | 0.00 | 0.00 | 62 | 1014.5 |
| 20260505200505 | 25 | 188 | 12.9 | 14.5 | 0.00 | 0.00 | 0.00 | 60 | 1014.6 |
| 20260505200000 | 25 | 205 | 9.7 | 9.7 | 0.00 | 0.00 | 0.00 | 58 | 1014.6 |
| 20260505195457 | 24 | 200 | 8.0 | 11.3 | 0.00 | 0.00 | 0.00 | 57 | 1014.6 |
| 20260505194955 | 24 | 198 | 11.3 | 12.9 | 0.00 | 0.00 | 0.00 | 62 | 1014.5 |
| 20260505194452 | 24 | 200 | 9.7 | 11.3 | 0.00 | 0.00 | 0.00 | 58 | 1014.5 |
| 20260505193952 | 24 | 182 | 12.9 | 12.9 | 0.00 | 0.00 | 0.00 | 62 | 1015.0 |
| 20260505193450 | 24 | 192 | 11.3 | 12.9 | 0.00 | 0.00 | 0.00 | 58 | 1014.9 |
| 20260505192947 | 24 | 197 | 11.3 | 12.9 | 0.00 | 0.00 | 0.00 | 56 | 1015.1 |
| 20260505192445 | 25 | 199 | 14.5 | 16.1 | 0.00 | 0.00 | 0.00 | 58 | 1015.0 |
| 20260505191942 | 24 | 184 | 9.7 | 11.3 | 0.00 | 0.00 | 0.00 | 58 | 1015.2 |
| 20260505191441 | 25 | 188 | 12.9 | 14.5 | 0.00 | 0.00 | 0.00 | 58 | 1015.2 |
| 20260505190937 | 24 | 199 | 9.7 | 12.9 | 0.00 | 0.00 | 0.00 | 60 | 1015.3 |
| 20260505190433 | 24 | 189 | 11.3 | 12.9 | 0.00 | 0.00 | 0.00 | 60 | 1015.2 |
| 20260505185928 | 24 | 196 | 9.7 | 12.9 | 0.00 | 0.00 | 0.00 | 58 | 1015.3 |
| 20260505185426 | 24 | 190 | 14.5 | 14.5 | 0.00 | 0.00 | 0.00 | 59 | 1015.3 |
| 20260505184922 | 24 | 179 | 12.9 | 14.5 | 0.00 | 0.00 | 0.00 | 59 | 1015.3 |
| 20260505184419 | 24 | 211 | 6.4 | 9.7 | 0.00 | 0.00 | 0.00 | 62 | 1015.3 |
| 20260505183916 | 23 | 188 | 9.7 | 11.3 | 0.00 | 0.00 | 0.00 | 63 | 1015.3 |
| 20260505183413 | 23 | 200 | 11.3 | 11.3 | 0.00 | 0.00 | 0.00 | 60 | 1015.3 |
| 20260505182909 | 24 | 187 | 11.3 | 12.9 | 0.00 | 0.00 | 0.00 | 60 | 1015.2 |
| 20260505182406 | 23 | 208 | 9.7 | 9.7 | 0.00 | 0.00 | 0.00 | 60 | 1015.3 |
| 20260505181902 | 23 | 167 | 12.9 | 12.9 | 0.00 | 0.00 | 0.00 | 62 | 1015.5 |
| 20260505181400 | 23 | 194 | 11.3 | 12.9 | 0.00 | 0.00 | 0.00 | 64 | 1015.5 |
| 20260505180857 | 23 | 183 | 9.7 | 11.3 | 0.00 | 0.00 | 0.00 | 61 | 1015.5 |
| 20260505180353 | 23 | 167 | 12.9 | 12.9 | 0.00 | 0.00 | 0.00 | 63 | 1015.6 |
| 20260505175850 | 23 | 183 | 12.9 | 14.5 | 0.00 | 0.00 | 0.00 | 60 | 1015.6 |
| 20260505175346 | 23 | 190 | 8.0 | 9.7 | 0.00 | 0.00 | 0.00 | 62 | 1015.6 |
| 20260505174843 | 23 | 194 | 11.3 | 11.3 | 0.00 | 0.00 | 0.00 | 61 | 1015.5 |
| 20260505174340 | 24 | 190 | 11.3 | 12.9 | 0.00 | 0.00 | 0.00 | 59 | 1015.6 |
| 20260505173836 | 24 | 186 | 11.3 | 11.3 | 0.00 | 0.00 | 0.00 | 58 | 1015.4 |
| 20260505173333 | 23 | 190 | 8.0 | 9.7 | 0.00 | 0.00 | 0.00 | 60 | 1015.6 |
| 20260505172830 | 24 | 181 | 11.3 | 11.3 | 0.00 | 0.00 | 0.00 | 59 | 1015.7 |
| 20260505172328 | 24 | 182 | 4.8 | 4.8 | 0.00 | 0.00 | 0.00 | 58 | 1015.7 |
| 20260505171827 | 24 | 168 | 8.0 | 9.7 | 0.00 | 0.00 | 0.00 | 56 | 1015.9 |
| 20260505171324 | 23 | 191 | 9.7 | 11.3 | 0.00 | 0.00 | 0.00 | 57 | 1015.8 |
| 20260505170821 | 23 | 212 | 9.7 | 11.3 | 0.00 | 0.00 | 0.00 | 59 | 1015.9 |
| 20260505170318 | 23 | 194 | 6.4 | 6.4 | 0.00 | 0.00 | 0.00 | 58 | 1015.9 |
| 20260505165813 | 23 | 181 | 9.7 | 11.3 | 0.00 | 0.00 | 0.00 | 61 | 1016.0 |
| 20260505165309 | 23 | 187 | 9.7 | 11.3 | 0.00 | 0.00 | 0.00 | 61 | 1016.0 |
| 20260505164804 | 23 | 213 | 9.7 | 11.3 | 0.00 | 0.00 | 0.00 | 61 | 1016.0 |
| 20260505164302 | 23 | 206 | 8.0 | 9.7 | 0.00 | 0.00 | 0.00 | 64 | 1016.0 |
| 20260505163800 | 23 | 178 | 11.3 | 11.3 | 0.00 | 0.00 | 0.00 | 62 | 1016.2 |
| 20260505163258 | 23 | 196 | 8.0 | 9.7 | 0.00 | 0.00 | 0.00 | 62 | 1016.0 |
| 20260505162755 | 23 | 201 | 11.3 | 12.9 | 0.00 | 0.00 | 0.00 | 64 | 1015.9 |
| 20260505162252 | 23 | 189 | 9.7 | 11.3 | 0.00 | 0.00 | 0.00 | 65 | 1016.2 |
| 20260505161749 | 23 | 186 | 9.7 | 11.3 | 0.00 | 0.00 | 0.00 | 61 | 1016.3 |
| 20260505161247 | 23 | 198 | 8.0 | 6.4 | 0.00 | 0.00 | 0.00 | 61 | 1016.4 |
| 20260505160744 | 23 | 205 | 6.4 | 4.8 | 0.00 | 0.00 | 0.00 | 63 | 1016.5 |
| 20260505160242 | 23 | 203 | 8.0 | 6.4 | 0.00 | 0.00 | 0.00 | 64 | 1016.3 |
| 20260505153221 | 22 | 201 | 4.8 | 6.4 | 0.00 | 0.00 | 0.00 | 61 | 1016.4 |
| 20260505152718 | 22 | 210 | 4.8 | 4.8 | 0.00 | 0.00 | 0.00 | 60 | 1016.6 |
| 20260505152214 | 22 | 207 | 6.4 | 6.4 | 0.00 | 0.00 | 0.00 | 61 | 1016.2 |
| 20260505151709 | 22 | 205 | 6.4 | 6.4 | 0.00 | 0.00 | 0.00 | 64 | 1016.6 |
| 20260505151206 | 22 | 210 | 4.8 | 4.8 | 0.00 | 0.00 | 0.00 | 61 | 1016.5 |
| 20260505150702 | 22 | 202 | 3.2 | 4.8 | 0.00 | 0.00 | 0.00 | 63 | 1016.5 |
| 20260505150200 | 22 | 197 | 8.0 | 6.4 | 0.00 | 0.00 | 0.00 | 63 | 1016.7 |
| 20260505140633 | 21 | 191 | 4.8 | 4.8 | 0.00 | 0.00 | 0.00 | 70 | 1016.4 |
| 20260505140130 | 20 | 195 | 3.2 | 3.2 | 0.00 | 0.00 | 0.00 | 70 | 1016.6 |
| 20260505124543 | 18 | 202 | 4.8 | 4.8 | 0.00 | 0.00 | 0.00 | 76 | 1016.7 |
| 20260505124039 | 18 | 209 | 4.8 | 4.8 | 0.00 | 0.00 | 0.00 | 78 | 1016.7 |
| 20260505123536 | 18 | 210 | 3.2 | 3.2 | 0.00 | 0.00 | 0.00 | 78 | 1016.9 |
| 20260505123032 | 18 | 206 | 6.4 | 6.4 | 0.00 | 0.00 | 0.00 | 79 | 1016.5 |
| 20260505122529 | 18 | 200 | 3.2 | 3.2 | 0.00 | 0.00 | 0.00 | 78 | 1016.7 |
| 20260505122026 | 17 | 195 | 4.8 | 4.8 | 0.00 | 0.00 | 0.00 | 80 | 1016.6 |
| 20260505121523 | 17 | 199 | 3.2 | 3.2 | 0.00 | 0.00 | 0.00 | 79 | 1016.7 |
| 20260505121019 | 17 | 196 | 4.8 | 4.8 | 0.00 | 0.00 | 0.00 | 80 | 1016.5 |
| 20260505120516 | 17 | 199 | 3.2 | 3.2 | 0.00 | 0.00 | 0.00 | 81 | 1016.6 |
| 20260505120011 | 17 | 201 | 6.4 | 4.8 | 0.00 | 0.00 | 0.00 | 81 | 1016.3 |
| 20260505115506 | 17 | 205 | 3.2 | 3.2 | 0.00 | 0.00 | 0.00 | 82 | 1016.4 |
| 20260505115004 | 17 | 196 | 6.4 | 4.8 | 0.00 | 0.00 | 0.00 | 82 | 1016.6 |
| 20260505114501 | 16 | 202 | 6.4 | 6.4 | 0.00 | 0.00 | 0.00 | 84 | 1016.5 |
| 20260505113957 | 16 | 192 | 4.8 | 4.8 | 0.00 | 0.00 | 0.00 | 85 | 1016.5 |
| 20260505113454 | 16 | 194 | 4.8 | 4.8 | 0.00 | 0.00 | 0.00 | 85 | 1016.3 |
| 20260505112949 | 16 | 200 | 6.4 | 4.8 | 0.00 | 0.00 | 0.00 | 85 | 1016.4 |
| 20260505112447 | 16 | 194 | 4.8 | 4.8 | 0.00 | 0.00 | 0.00 | 85 | 1016.6 |
| 20260505111944 | 16 | 193 | 4.8 | 4.8 | 0.00 | 0.00 | 0.00 | 86 | 1016.4 |
| 20260505111438 | 16 | 182 | 3.2 | 3.2 | 0.00 | 0.00 | 0.00 | 86 | 1016.3 |
| 20260505110935 | 16 | 200 | 3.2 | 3.2 | 0.00 | 0.00 | 0.00 | 86 | 1016.1 |
| 20260505110431 | 16 | 197 | 6.4 | 4.8 | 0.00 | 0.00 | 0.00 | 85 | 1016.3 |
| 20260505101903 | 15 | 197 | 6.4 | 6.4 | 0.00 | 0.00 | 0.00 | 86 | 1015.6 |
| 20260505101402 | 15 | 200 | 6.4 | 4.8 | 0.00 | 0.00 | 0.00 | 88 | 1015.7 |
| 20260505100859 | 15 | 191 | 4.8 | 4.8 | 0.00 | 0.00 | 0.00 | 87 | 1015.7 |
| 20260505100355 | 15 | 194 | 4.8 | 4.8 | 0.00 | 0.00 | 0.00 | 87 | 1015.5 |
| 20260505095851 | 15 | 196 | 3.2 | 4.8 | 0.00 | 0.00 | 0.00 | 87 | 1015.6 |
| 20260505095349 | 15 | 197 | 4.8 | 4.8 | 0.00 | 0.00 | 0.00 | 87 | 1015.4 |
| 20260505094845 | 15 | 195 | 4.8 | 4.8 | 0.00 | 0.00 | 0.00 | 87 | 1015.3 |
| 20260505094342 | 15 | 198 | 6.4 | 6.4 | 0.00 | 0.00 | 0.00 | 87 | 1015.5 |
| 20260505093837 | 15 | 194 | 4.8 | 4.8 | 0.00 | 0.00 | 0.00 | 86 | 1015.3 |
| 20260505093335 | 15 | 191 | 4.8 | 4.8 | 0.00 | 0.00 | 0.00 | 86 | 1015.3 |
| 20260505092832 | 15 | 201 | 4.8 | 4.8 | 0.00 | 0.00 | 0.00 | 86 | 1015.2 |
| 20260505092330 | 15 | 193 | 4.8 | 4.8 | 0.00 | 0.00 | 0.00 | 87 | 1015.4 |
| 20260505091827 | 15 | 191 | 4.8 | 4.8 | 0.00 | 0.00 | 0.00 | 87 | 1015.3 |
| 20260505091325 | 15 | 193 | 4.8 | 4.8 | 0.00 | 0.00 | 0.00 | 87 | 1015.3 |
| 20260505090823 | 15 | 192 | 3.2 | 3.2 | 0.00 | 0.00 | 0.00 | 86 | 1015.2 |
| 20260505090321 | 15 | 196 | 4.8 | 4.8 | 0.00 | 0.00 | 0.00 | 86 | 1015.4 |
| 20260505085818 | 16 | 195 | 4.8 | 4.8 | 0.00 | 0.00 | 0.00 | 87 | 1015.2 |
| 20260505085316 | 16 | 191 | 6.4 | 6.4 | 0.00 | 0.00 | 0.00 | 86 | 1015.4 |
| 20260505084813 | 16 | 196 | 6.4 | 4.8 | 0.00 | 0.00 | 0.00 | 85 | 1015.2 |
| 20260505084312 | 16 | 190 | 4.8 | 4.8 | 0.00 | 0.00 | 0.00 | 85 | 1015.1 |
| 20260505083808 | 16 | 195 | 6.4 | 6.4 | 0.00 | 0.00 | 0.00 | 86 | 1015.1 |
| 20260505083306 | 16 | 188 | 4.8 | 4.8 | 0.00 | 0.00 | 0.00 | 85 | 1015.2 |
| 20260505082801 | 16 | 202 | 6.4 | 4.8 | 0.00 | 0.00 | 0.00 | 86 | 1015.0 |
| 20260505082259 | 16 | 198 | 6.4 | 4.8 | 0.00 | 0.00 | 0.00 | 86 | 1015.1 |
| 20260505081755 | 16 | 192 | 4.8 | 4.8 | 0.00 | 0.00 | 0.00 | 85 | 1015.1 |
| 20260505081252 | 16 | 192 | 4.8 | 4.8 | 0.00 | 0.00 | 0.00 | 84 | 1015.0 |
| 20260505080748 | 16 | 198 | 3.2 | 3.2 | 0.00 | 0.00 | 0.00 | 85 | 1015.1 |
| 20260505080244 | 16 | 197 | 4.8 | 4.8 | 0.00 | 0.00 | 0.00 | 86 | 1015.1 |
| 20260505075740 | 16 | 193 | 4.8 | 4.8 | 0.00 | 0.00 | 0.00 | 86 | 1015.0 |
| 20260505075237 | 16 | 193 | 4.8 | 4.8 | 0.00 | 0.00 | 0.00 | 84 | 1015.0 |
| 20260505074735 | 16 | 193 | 4.8 | 4.8 | 0.00 | 0.00 | 0.00 | 85 | 1014.8 |
| 20260505074232 | 16 | 194 | 4.8 | 4.8 | 0.00 | 0.00 | 0.00 | 84 | 1014.7 |
| 20260505073729 | 16 | 190 | 6.4 | 4.8 | 0.00 | 0.00 | 0.00 | 84 | 1015.0 |
| 20260505073227 | 16 | 193 | 6.4 | 6.4 | 0.00 | 0.00 | 0.00 | 85 | 1015.0 |
| 20260505072723 | 16 | 198 | 6.4 | 4.8 | 0.00 | 0.00 | 0.00 | 84 | 1014.7 |
| 20260505072219 | 16 | 198 | 6.4 | 6.4 | 0.00 | 0.00 | 0.00 | 83 | 1014.7 |
| 20260505071715 | 16 | 194 | 6.4 | 4.8 | 0.00 | 0.00 | 0.00 | 83 | 1014.7 |
| 20260505071213 | 16 | 198 | 4.8 | 4.8 | 0.00 | 0.00 | 0.00 | 83 | 1014.5 |
| 20260505070710 | 16 | 186 | 4.8 | 4.8 | 0.00 | 0.00 | 0.00 | 83 | 1014.5 |
| 20260505070206 | 16 | 192 | 6.4 | 6.4 | 0.00 | 0.00 | 0.00 | 82 | 1014.4 |
| 20260505065702 | 16 | 195 | 6.4 | 6.4 | 0.00 | 0.00 | 0.00 | 81 | 1014.6 |
| 20260505065159 | 16 | 198 | 4.8 | 3.2 | 0.00 | 0.00 | 0.00 | 81 | 1014.6 |
| 20260505064656 | 16 | 197 | 3.2 | 3.2 | 0.00 | 0.00 | 0.00 | 81 | 1014.5 |
| 20260505064154 | 16 | 194 | 4.8 | 4.8 | 0.00 | 0.00 | 0.00 | 81 | 1014.8 |
| 20260505063651 | 16 | 195 | 4.8 | 6.4 | 0.00 | 0.00 | 0.00 | 81 | 1014.8 |
| 20260505063147 | 16 | 188 | 4.8 | 4.8 | 0.00 | 0.00 | 0.00 | 80 | 1014.8 |
| 20260505062643 | 17 | 200 | 6.4 | 6.4 | 0.00 | 0.00 | 0.00 | 80 | 1015.0 |
| 20260505062141 | 17 | 199 | 6.4 | 6.4 | 0.00 | 0.00 | 0.00 | 81 | 1014.8 |
| 20260505061638 | 17 | 200 | 6.4 | 4.8 | 0.00 | 0.00 | 0.00 | 80 | 1014.7 |
| 20260505061136 | 17 | 204 | 6.4 | 6.4 | 0.00 | 0.00 | 0.00 | 79 | 1014.8 |
| 20260505060633 | 17 | 201 | 6.4 | 6.4 | 0.00 | 0.00 | 0.00 | 79 | 1015.0 |
| 20260505060130 | 17 | 194 | 4.8 | 6.4 | 0.00 | 0.00 | 0.00 | 79 | 1015.0 |
| 20260505055625 | 17 | 198 | 6.4 | 6.4 | 0.00 | 0.00 | 0.00 | 80 | 1015.0 |
| 20260505055122 | 17 | 197 | 6.4 | 4.8 | 0.00 | 0.00 | 0.00 | 80 | 1015.0 |
| 20260505054620 | 17 | 197 | 4.8 | 4.8 | 0.00 | 0.00 | 0.00 | 80 | 1014.9 |
| 20260505054118 | 17 | 198 | 6.4 | 4.8 | 0.00 | 0.00 | 0.00 | 79 | 1014.9 |
| 20260505053614 | 17 | 198 | 6.4 | 4.8 | 0.00 | 0.00 | 0.00 | 79 | 1014.9 |
| 20260505053111 | 17 | 198 | 3.2 | 4.8 | 0.00 | 0.00 | 0.00 | 79 | 1015.2 |
| 20260505052608 | 17 | 196 | 4.8 | 4.8 | 0.00 | 0.00 | 0.00 | 80 | 1015.0 |
| 20260505052106 | 17 | 195 | 4.8 | 4.8 | 0.00 | 0.00 | 0.00 | 79 | 1015.0 |
| 20260505051602 | 17 | 199 | 4.8 | 3.2 | 0.00 | 0.00 | 0.00 | 78 | 1015.1 |
| 20260505051100 | 17 | 198 | 4.8 | 4.8 | 0.00 | 0.00 | 0.00 | 79 | 1015.1 |
| 20260505050558 | 17 | 197 | 4.8 | 4.8 | 0.00 | 0.00 | 0.00 | 78 | 1015.1 |
| 20260505041526 | 17 | 201 | 4.8 | 4.8 | 0.00 | 0.00 | 0.00 | 75 | 1015.0 |
| 20260505041023 | 17 | 203 | 4.8 | 4.8 | 0.00 | 0.00 | 0.00 | 75 | 1014.9 |
| 20260505040520 | 17 | 196 | 4.8 | 4.8 | 0.00 | 0.00 | 0.00 | 77 | 1014.8 |
| 20260505040018 | 17 | 201 | 6.4 | 6.4 | 0.00 | 0.00 | 0.00 | 77 | 1014.9 |
| 20260505035513 | 18 | 208 | 6.4 | 9.7 | 0.00 | 0.00 | 0.00 | 76 | 1014.8 |
| 20260505035010 | 18 | 202 | 8.0 | 9.7 | 0.00 | 0.00 | 0.00 | 75 | 1014.9 |
| 20260505034507 | 18 | 196 | 8.0 | 9.7 | 0.00 | 0.00 | 0.00 | 75 | 1014.8 |
| 20260505034004 | 18 | 204 | 6.4 | 6.4 | 0.00 | 0.00 | 0.00 | 76 | 1014.9 |
| 20260505033500 | 18 | 193 | 6.4 | 6.4 | 0.00 | 0.00 | 0.00 | 74 | 1014.9 |
| 20260505032959 | 18 | 197 | 9.7 | 9.7 | 0.00 | 0.00 | 0.00 | 72 | 1014.9 |
| 20260505032456 | 18 | 184 | 6.4 | 6.4 | 0.00 | 0.00 | 0.00 | 74 | 1014.8 |
| 20260505031952 | 18 | 204 | 6.4 | 6.4 | 0.00 | 0.00 | 0.00 | 74 | 1014.8 |
| 20260505031449 | 18 | 199 | 6.4 | 6.4 | 0.00 | 0.00 | 0.00 | 75 | 1014.8 |
| 20260505030946 | 18 | 198 | 6.4 | 6.4 | 0.00 | 0.00 | 0.00 | 74 | 1014.6 |
| 20260505030442 | 18 | 205 | 8.0 | 6.4 | 0.00 | 0.00 | 0.00 | 75 | 1014.7 |
| 20260505025937 | 18 | 190 | 8.0 | 9.7 | 0.00 | 0.00 | 0.00 | 75 | 1014.7 |
| 20260505025435 | 18 | 204 | 8.0 | 9.7 | 0.00 | 0.00 | 0.00 | 74 | 1014.8 |
| 20260505024934 | 18 | 208 | 8.0 | 9.7 | 0.00 | 0.00 | 0.00 | 76 | 1014.5 |
| 20260505024431 | 18 | 199 | 8.0 | 9.7 | 0.00 | 0.00 | 0.00 | 75 | 1014.6 |
| 20260505023928 | 18 | 203 | 8.0 | 9.7 | 0.00 | 0.00 | 0.00 | 76 | 1014.6 |
| 20260505023425 | 18 | 194 | 8.0 | 9.7 | 0.00 | 0.00 | 0.00 | 76 | 1014.8 |
| 20260505022922 | 18 | 210 | 9.7 | 11.3 | 0.00 | 0.00 | 0.00 | 76 | 1014.6 |
| 20260505022420 | 18 | 211 | 9.7 | 9.7 | 0.00 | 0.00 | 0.00 | 74 | 1014.8 |
| 20260505021916 | 18 | 214 | 9.7 | 9.7 | 0.00 | 0.00 | 0.00 | 74 | 1014.6 |
| 20260505021413 | 18 | 194 | 8.0 | 9.7 | 0.00 | 0.00 | 0.00 | 75 | 1014.8 |
| 20260505020909 | 18 | 200 | 6.4 | 9.7 | 0.00 | 0.00 | 0.00 | 75 | 1014.7 |
| 20260505020404 | 18 | 182 | 6.4 | 9.7 | 0.00 | 0.00 | 0.00 | 74 | 1014.7 |
| 20260505015901 | 19 | 207 | 9.7 | 11.3 | 0.00 | 0.00 | 0.00 | 74 | 1014.7 |
| 20260505015358 | 19 | 206 | 6.4 | 6.4 | 0.00 | 0.00 | 0.00 | 74 | 1014.9 |